Year,Month,Day,Hour,Minute,Value (Times are PST for temperature in C)
2018,07,15,00,00,18.30
2018,07,15,00,01,18.30
2018,07,15,00,02,18.20
2018,07,15,00,03,18.20
2018,07,15,00,04,18.20
2018,07,15,00,05,18.20
2018,07,15,00,06,18.20
2018,07,15,00,07,18.20
2018,07,15,00,08,18.20
2018,07,15,00,09,18.20
2018,07,15,00,10,18.20
2018,07,15,00,11,18.10
2018,07,15,00,12,18.10
2018,07,15,00,13,18.10
2018,07,15,00,14,18.20
2018,07,15,00,15,18.20
2018,07,15,00,16,18.20
2018,07,15,00,17,18.20
2018,07,15,00,18,18.20
2018,07,15,00,19,18.20
2018,07,15,00,20,18.20
2018,07,15,00,21,18.20
2018,07,15,00,22,18.20
2018,07,15,00,23,18.20
2018,07,15,00,24,18.20
2018,07,15,00,25,18.20
2018,07,15,00,26,18.20
2018,07,15,00,27,18.20
2018,07,15,00,28,18.20
2018,07,15,00,29,18.20
2018,07,15,00,30,18.20
2018,07,15,00,31,18.20
2018,07,15,00,32,18.20
2018,07,15,00,33,18.20
2018,07,15,00,34,18.10
2018,07,15,00,35,18.10
2018,07,15,00,36,18.10
2018,07,15,00,37,18.10
2018,07,15,00,38,18.10
2018,07,15,00,39,18.10
2018,07,15,00,40,18.00
2018,07,15,00,41,18.00
2018,07,15,00,42,18.00
2018,07,15,00,43,18.00
2018,07,15,00,44,18.00
2018,07,15,00,45,18.00
2018,07,15,00,46,17.90
2018,07,15,00,47,17.90
2018,07,15,00,48,17.90
2018,07,15,00,49,17.90
2018,07,15,00,50,17.90
2018,07,15,00,51,17.80
2018,07,15,00,52,17.80
2018,07,15,00,53,17.80
2018,07,15,00,54,17.80
2018,07,15,00,55,17.80
2018,07,15,00,56,17.80
2018,07,15,00,57,17.80
2018,07,15,00,58,17.80
2018,07,15,00,59,17.70
2018,07,15,01,00,17.70
2018,07,15,01,01,17.70
2018,07,15,01,02,17.70
2018,07,15,01,03,17.60
2018,07,15,01,04,17.60
2018,07,15,01,05,17.60
2018,07,15,01,06,17.60
2018,07,15,01,07,17.70
2018,07,15,01,08,17.70
2018,07,15,01,09,17.70
2018,07,15,01,10,17.80
2018,07,15,01,11,17.80
2018,07,15,01,12,17.80
2018,07,15,01,13,17.90
2018,07,15,01,14,17.90
2018,07,15,01,15,17.90
2018,07,15,01,16,17.90
2018,07,15,01,17,17.90
2018,07,15,01,18,18.00
2018,07,15,01,19,18.00
2018,07,15,01,20,18.00
2018,07,15,01,21,18.00
2018,07,15,01,22,18.00
2018,07,15,01,23,18.00
2018,07,15,01,24,18.00
2018,07,15,01,25,18.00
2018,07,15,01,26,18.00
2018,07,15,01,27,18.00
2018,07,15,01,28,18.00
2018,07,15,01,29,18.10
2018,07,15,01,30,18.10
2018,07,15,01,31,18.10
2018,07,15,01,32,18.10
2018,07,15,01,33,18.10
2018,07,15,01,34,18.10
2018,07,15,01,35,18.00
2018,07,15,01,36,18.00
2018,07,15,01,37,18.00
2018,07,15,01,38,18.00
2018,07,15,01,39,17.90
2018,07,15,01,40,17.90
2018,07,15,01,41,17.90
2018,07,15,01,42,17.90
2018,07,15,01,43,17.80
2018,07,15,01,44,17.80
2018,07,15,01,45,17.70
2018,07,15,01,46,17.70
2018,07,15,01,47,17.60
2018,07,15,01,48,17.60
2018,07,15,01,49,17.50
2018,07,15,01,50,17.40
2018,07,15,01,51,17.40
2018,07,15,01,52,17.30
2018,07,15,01,53,17.30
2018,07,15,01,54,17.30
2018,07,15,01,55,17.30
2018,07,15,01,56,17.20
2018,07,15,01,57,17.20
2018,07,15,01,58,17.20
2018,07,15,01,59,17.20
2018,07,15,02,00,17.10
2018,07,15,02,01,17.10
2018,07,15,02,02,17.10
2018,07,15,02,03,17.10
2018,07,15,02,04,17.10
2018,07,15,02,05,17.10
2018,07,15,02,06,17.10
2018,07,15,02,07,17.00
2018,07,15,02,08,17.00
2018,07,15,02,09,17.00
2018,07,15,02,10,17.00
2018,07,15,02,11,16.90
2018,07,15,02,12,16.90
2018,07,15,02,13,16.90
2018,07,15,02,14,16.80
2018,07,15,02,15,16.80
2018,07,15,02,16,16.80
2018,07,15,02,17,16.70
2018,07,15,02,18,16.70
2018,07,15,02,19,16.70
2018,07,15,02,20,16.60
2018,07,15,02,21,16.60
2018,07,15,02,22,16.60
2018,07,15,02,23,16.50
2018,07,15,02,24,16.50
2018,07,15,02,25,16.50
2018,07,15,02,26,16.40
2018,07,15,02,27,16.40
2018,07,15,02,28,16.40
2018,07,15,02,29,16.30
2018,07,15,02,30,16.30
2018,07,15,02,31,16.30
2018,07,15,02,32,16.30
2018,07,15,02,33,16.20
2018,07,15,02,34,16.20
2018,07,15,02,35,16.20
2018,07,15,02,36,16.10
2018,07,15,02,37,16.10
2018,07,15,02,38,16.10
2018,07,15,02,39,16.10
2018,07,15,02,40,16.00
2018,07,15,02,41,16.00
2018,07,15,02,42,16.10
2018,07,15,02,43,16.10
2018,07,15,02,44,16.10
2018,07,15,02,45,16.10
2018,07,15,02,46,16.10
2018,07,15,02,47,16.10
2018,07,15,02,48,16.10
2018,07,15,02,49,16.10
2018,07,15,02,50,16.00
2018,07,15,02,51,16.00
2018,07,15,02,52,15.90
2018,07,15,02,53,15.90
2018,07,15,02,54,15.90
2018,07,15,02,55,15.90
2018,07,15,02,56,15.90
2018,07,15,02,57,15.90
2018,07,15,02,58,15.90
2018,07,15,02,59,15.90
2018,07,15,03,00,15.90
2018,07,15,03,01,15.90
2018,07,15,03,02,15.90
2018,07,15,03,03,15.90
2018,07,15,03,04,15.90
2018,07,15,03,05,15.80
2018,07,15,03,06,15.80
2018,07,15,03,07,15.80
2018,07,15,03,08,15.80
2018,07,15,03,09,15.70
2018,07,15,03,10,15.70
2018,07,15,03,11,15.70
2018,07,15,03,12,15.70
2018,07,15,03,13,15.70
2018,07,15,03,14,15.70
2018,07,15,03,15,15.70
2018,07,15,03,16,15.70
2018,07,15,03,17,15.70
2018,07,15,03,18,15.70
2018,07,15,03,19,15.70
2018,07,15,03,20,15.70
2018,07,15,03,21,15.70
2018,07,15,03,22,15.70
2018,07,15,03,23,15.70
2018,07,15,03,24,15.60
2018,07,15,03,25,15.60
2018,07,15,03,26,15.60
2018,07,15,03,27,15.60
2018,07,15,03,28,15.60
2018,07,15,03,29,15.60
2018,07,15,03,30,15.60
2018,07,15,03,31,15.70
2018,07,15,03,32,15.70
2018,07,15,03,33,15.70
2018,07,15,03,34,15.70
2018,07,15,03,35,15.70
2018,07,15,03,36,15.70
2018,07,15,03,37,15.70
2018,07,15,03,38,15.70
2018,07,15,03,39,15.70
2018,07,15,03,40,15.60
2018,07,15,03,41,15.60
2018,07,15,03,42,15.60
2018,07,15,03,43,15.50
2018,07,15,03,44,15.50
2018,07,15,03,45,15.50
2018,07,15,03,46,15.40
2018,07,15,03,47,15.40
2018,07,15,03,48,15.40
2018,07,15,03,49,15.30
2018,07,15,03,50,15.30
2018,07,15,03,51,15.30
2018,07,15,03,52,15.30
2018,07,15,03,53,15.30
2018,07,15,03,54,15.30
2018,07,15,03,55,15.30
2018,07,15,03,56,15.30
2018,07,15,03,57,15.30
2018,07,15,03,58,15.30
2018,07,15,03,59,15.30
2018,07,15,04,00,15.30
2018,07,15,04,01,15.30
2018,07,15,04,02,15.20
2018,07,15,04,03,15.20
2018,07,15,04,04,15.20
2018,07,15,04,05,15.30
2018,07,15,04,06,15.30
2018,07,15,04,07,15.40
2018,07,15,04,08,15.40
2018,07,15,04,09,15.50
2018,07,15,04,10,15.50
2018,07,15,04,11,15.50
2018,07,15,04,12,15.60
2018,07,15,04,13,15.60
2018,07,15,04,14,15.60
2018,07,15,04,15,15.60
2018,07,15,04,16,15.60
2018,07,15,04,17,15.60
2018,07,15,04,18,15.70
2018,07,15,04,19,15.70
2018,07,15,04,20,15.70
2018,07,15,04,21,15.70
2018,07,15,04,22,15.70
2018,07,15,04,23,15.70
2018,07,15,04,24,15.70
2018,07,15,04,25,15.70
2018,07,15,04,26,15.80
2018,07,15,04,27,15.80
2018,07,15,04,28,15.80
2018,07,15,04,29,15.80
2018,07,15,04,30,15.80
2018,07,15,04,31,15.80
2018,07,15,04,32,15.80
2018,07,15,04,33,15.80
2018,07,15,04,34,15.80
2018,07,15,04,35,15.80
2018,07,15,04,36,15.80
2018,07,15,04,37,15.80
2018,07,15,04,38,15.80
2018,07,15,04,39,15.90
2018,07,15,04,40,15.90
2018,07,15,04,41,15.90
2018,07,15,04,42,15.90
2018,07,15,04,43,15.90
2018,07,15,04,44,15.90
2018,07,15,04,45,15.90
2018,07,15,04,46,15.90
2018,07,15,04,47,15.80
2018,07,15,04,48,15.90
2018,07,15,04,49,15.80
2018,07,15,04,50,15.80
2018,07,15,04,51,15.80
2018,07,15,04,52,15.80
2018,07,15,04,53,15.80
2018,07,15,04,54,15.80
2018,07,15,04,55,15.80
2018,07,15,04,56,15.80
2018,07,15,04,57,15.70
2018,07,15,04,58,15.70
2018,07,15,04,59,15.70
2018,07,15,05,00,15.70
2018,07,15,05,01,15.70
2018,07,15,05,02,15.70
2018,07,15,05,03,15.70
2018,07,15,05,04,15.70
2018,07,15,05,05,15.70
2018,07,15,05,06,15.60
2018,07,15,05,07,15.60
2018,07,15,05,08,15.50
2018,07,15,05,09,15.50
2018,07,15,05,10,15.40
2018,07,15,05,11,15.40
2018,07,15,05,12,15.30
2018,07,15,05,13,15.30
2018,07,15,05,14,15.20
2018,07,15,05,15,15.20
2018,07,15,05,16,15.20
2018,07,15,05,17,15.10
2018,07,15,05,18,15.10
2018,07,15,05,19,15.00
2018,07,15,05,20,15.00
2018,07,15,05,21,14.90
2018,07,15,05,22,14.90
2018,07,15,05,23,14.90
2018,07,15,05,24,14.90
2018,07,15,05,25,14.80
2018,07,15,05,26,14.80
2018,07,15,05,27,14.80
2018,07,15,05,28,14.80
2018,07,15,05,29,14.80
2018,07,15,05,30,14.70
2018,07,15,05,31,14.70
2018,07,15,05,32,14.70
2018,07,15,05,33,14.70
2018,07,15,05,34,14.70
2018,07,15,05,35,14.60
2018,07,15,05,36,14.60
2018,07,15,05,37,14.60
2018,07,15,05,38,14.60
2018,07,15,05,39,14.60
2018,07,15,05,40,14.60
2018,07,15,05,41,14.50
2018,07,15,05,42,14.50
2018,07,15,05,43,14.50
2018,07,15,05,44,14.50
2018,07,15,05,45,14.60
2018,07,15,05,46,14.60
2018,07,15,05,47,14.60
2018,07,15,05,48,14.60
2018,07,15,05,49,14.60
2018,07,15,05,50,14.60
2018,07,15,05,51,14.70
2018,07,15,05,52,14.70
2018,07,15,05,53,14.80
2018,07,15,05,54,14.80
2018,07,15,05,55,14.90
2018,07,15,05,56,15.00
2018,07,15,05,57,15.00
2018,07,15,05,58,15.10
2018,07,15,05,59,15.10
2018,07,15,06,00,15.20
2018,07,15,06,01,15.20
2018,07,15,06,02,15.30
2018,07,15,06,03,15.30
2018,07,15,06,04,15.30
2018,07,15,06,05,15.40
2018,07,15,06,06,15.40
2018,07,15,06,07,15.40
2018,07,15,06,08,15.40
2018,07,15,06,09,15.40
2018,07,15,06,10,15.50
2018,07,15,06,11,15.50
2018,07,15,06,12,15.50
2018,07,15,06,13,15.50
2018,07,15,06,14,15.50
2018,07,15,06,15,15.50
2018,07,15,06,16,15.50
2018,07,15,06,17,15.50
2018,07,15,06,18,15.50
2018,07,15,06,19,15.60
2018,07,15,06,20,15.60
2018,07,15,06,21,15.60
2018,07,15,06,22,15.60
2018,07,15,06,23,15.60
2018,07,15,06,24,15.70
2018,07,15,06,25,15.70
2018,07,15,06,26,15.80
2018,07,15,06,27,15.80
2018,07,15,06,28,15.80
2018,07,15,06,29,15.90
2018,07,15,06,30,15.90
2018,07,15,06,31,16.00
2018,07,15,06,32,16.00
2018,07,15,06,33,16.10
2018,07,15,06,34,16.10
2018,07,15,06,35,16.20
2018,07,15,06,36,16.20
2018,07,15,06,37,16.30
2018,07,15,06,38,16.30
2018,07,15,06,39,16.30
2018,07,15,06,40,16.40
2018,07,15,06,41,16.40
2018,07,15,06,42,16.40
2018,07,15,06,43,16.50
2018,07,15,06,44,16.50
2018,07,15,06,45,16.60
2018,07,15,06,46,16.60
2018,07,15,06,47,16.60
2018,07,15,06,48,16.70
2018,07,15,06,49,16.70
2018,07,15,06,50,16.70
2018,07,15,06,51,16.80
2018,07,15,06,52,16.80
2018,07,15,06,53,16.80
2018,07,15,06,54,16.80
2018,07,15,06,55,16.80
2018,07,15,06,56,16.90
2018,07,15,06,57,16.90
2018,07,15,06,58,16.90
2018,07,15,06,59,16.90
2018,07,15,07,00,16.90
2018,07,15,07,01,16.90
2018,07,15,07,02,16.90
2018,07,15,07,03,16.90
2018,07,15,07,04,16.90
2018,07,15,07,05,16.90
2018,07,15,07,06,17.00
2018,07,15,07,07,17.00
2018,07,15,07,08,17.00
2018,07,15,07,09,17.00
2018,07,15,07,10,17.10
2018,07,15,07,11,17.10
2018,07,15,07,12,17.10
2018,07,15,07,13,17.20
2018,07,15,07,14,17.20
2018,07,15,07,15,17.20
2018,07,15,07,16,17.30
2018,07,15,07,17,17.30
2018,07,15,07,18,17.30
2018,07,15,07,19,17.40
2018,07,15,07,20,17.40
2018,07,15,07,21,17.40
2018,07,15,07,22,17.50
2018,07,15,07,23,17.50
2018,07,15,07,24,17.60
2018,07,15,07,25,17.60
2018,07,15,07,26,17.60
2018,07,15,07,27,17.70
2018,07,15,07,28,17.70
2018,07,15,07,29,17.80
2018,07,15,07,30,17.80
2018,07,15,07,31,17.80
2018,07,15,07,32,17.80
2018,07,15,07,33,17.90
2018,07,15,07,34,17.90
2018,07,15,07,35,18.00
2018,07,15,07,36,18.00
2018,07,15,07,37,18.10
2018,07,15,07,38,18.10
2018,07,15,07,39,18.20
2018,07,15,07,40,18.30
2018,07,15,07,41,18.40
2018,07,15,07,42,18.50
2018,07,15,07,43,18.70
2018,07,15,07,44,18.90
2018,07,15,07,45,19.00
2018,07,15,07,46,19.20
2018,07,15,07,47,19.40
2018,07,15,07,48,19.50
2018,07,15,07,49,19.70
2018,07,15,07,50,19.80
2018,07,15,07,51,19.90
2018,07,15,07,52,20.00
2018,07,15,07,53,20.10
2018,07,15,07,54,20.10
2018,07,15,07,55,20.20
2018,07,15,07,56,20.20
2018,07,15,07,57,20.30
2018,07,15,07,58,20.30
2018,07,15,07,59,20.40
2018,07,15,08,00,20.30
2018,07,15,08,01,20.30
2018,07,15,08,02,20.20
2018,07,15,08,03,20.10
2018,07,15,08,04,20.10
2018,07,15,08,05,20.00
2018,07,15,08,06,20.10
2018,07,15,08,07,20.10
2018,07,15,08,08,20.10
2018,07,15,08,09,20.20
2018,07,15,08,10,20.20
2018,07,15,08,11,20.20
2018,07,15,08,12,20.20
2018,07,15,08,13,20.20
2018,07,15,08,14,20.10
2018,07,15,08,15,20.00
2018,07,15,08,16,19.80
2018,07,15,08,17,19.80
2018,07,15,08,18,19.70
2018,07,15,08,19,19.60
2018,07,15,08,20,19.60
2018,07,15,08,21,19.60
2018,07,15,08,22,19.60
2018,07,15,08,23,19.60
2018,07,15,08,24,19.60
2018,07,15,08,25,19.60
2018,07,15,08,26,19.60
2018,07,15,08,27,19.60
2018,07,15,08,28,19.60
2018,07,15,08,29,19.70
2018,07,15,08,30,19.70
2018,07,15,08,31,19.80
2018,07,15,08,32,19.90
2018,07,15,08,33,20.00
2018,07,15,08,34,20.10
2018,07,15,08,35,20.20
2018,07,15,08,36,20.20
2018,07,15,08,37,20.30
2018,07,15,08,38,20.40
2018,07,15,08,39,20.50
2018,07,15,08,40,20.50
2018,07,15,08,41,20.60
2018,07,15,08,42,20.70
2018,07,15,08,43,20.80
2018,07,15,08,44,20.90
2018,07,15,08,45,21.00
2018,07,15,08,46,21.10
2018,07,15,08,47,21.20
2018,07,15,08,48,21.30
2018,07,15,08,49,21.40
2018,07,15,08,50,21.50
2018,07,15,08,51,21.60
2018,07,15,08,52,21.70
2018,07,15,08,53,21.80
2018,07,15,08,54,21.80
2018,07,15,08,55,22.00
2018,07,15,08,56,22.00
2018,07,15,08,57,22.10
2018,07,15,08,58,22.20
2018,07,15,08,59,22.20
2018,07,15,09,00,22.30
2018,07,15,09,01,22.50
2018,07,15,09,02,22.50
2018,07,15,09,03,22.50
2018,07,15,09,04,22.50
2018,07,15,09,05,22.40
2018,07,15,09,06,22.40
2018,07,15,09,07,22.40
2018,07,15,09,08,22.40
2018,07,15,09,09,22.40
2018,07,15,09,10,22.50
2018,07,15,09,11,22.50
2018,07,15,09,12,22.60
2018,07,15,09,13,22.60
2018,07,15,09,14,22.60
2018,07,15,09,15,22.70
2018,07,15,09,16,22.70
2018,07,15,09,17,22.70
2018,07,15,09,18,22.80
2018,07,15,09,19,22.80
2018,07,15,09,20,22.90
2018,07,15,09,21,22.90
2018,07,15,09,22,23.00
2018,07,15,09,23,23.10
2018,07,15,09,24,23.20
2018,07,15,09,25,23.20
2018,07,15,09,26,23.20
2018,07,15,09,27,23.20
2018,07,15,09,28,23.30
2018,07,15,09,29,23.40
2018,07,15,09,30,23.40
2018,07,15,09,31,23.40
2018,07,15,09,32,23.40
2018,07,15,09,33,23.40
2018,07,15,09,34,23.40
2018,07,15,09,35,23.40
2018,07,15,09,36,23.40
2018,07,15,09,37,23.40
2018,07,15,09,38,23.50
2018,07,15,09,39,23.50
2018,07,15,09,40,23.60
2018,07,15,09,41,23.70
2018,07,15,09,42,23.80
2018,07,15,09,43,23.90
2018,07,15,09,44,24.00
2018,07,15,09,45,24.10
2018,07,15,09,46,24.20
2018,07,15,09,47,24.30
2018,07,15,09,48,24.40
2018,07,15,09,49,24.50
2018,07,15,09,50,24.60
2018,07,15,09,51,24.70
2018,07,15,09,52,24.70
2018,07,15,09,53,24.60
2018,07,15,09,54,24.50
2018,07,15,09,55,24.40
2018,07,15,09,56,24.30
2018,07,15,09,57,24.20
2018,07,15,09,58,24.20
2018,07,15,09,59,24.30
2018,07,15,10,00,24.30
2018,07,15,10,01,24.40
2018,07,15,10,02,24.40
2018,07,15,10,03,24.40
2018,07,15,10,04,24.50
2018,07,15,10,05,24.50
2018,07,15,10,06,24.60
2018,07,15,10,07,24.60
2018,07,15,10,08,24.70
2018,07,15,10,09,24.80
2018,07,15,10,10,24.90
2018,07,15,10,11,25.00
2018,07,15,10,12,25.10
2018,07,15,10,13,25.20
2018,07,15,10,14,25.30
2018,07,15,10,15,25.40
2018,07,15,10,16,25.40
2018,07,15,10,17,25.40
2018,07,15,10,18,25.40
2018,07,15,10,19,25.50
2018,07,15,10,20,25.60
2018,07,15,10,21,25.70
2018,07,15,10,22,25.70
2018,07,15,10,23,25.70
2018,07,15,10,24,25.60
2018,07,15,10,25,25.50
2018,07,15,10,26,25.50
2018,07,15,10,27,25.40
2018,07,15,10,28,25.50
2018,07,15,10,29,25.50
2018,07,15,10,30,25.60
2018,07,15,10,31,25.60
2018,07,15,10,32,25.60
2018,07,15,10,33,25.60
2018,07,15,10,34,25.60
2018,07,15,10,35,25.60
2018,07,15,10,36,25.50
2018,07,15,10,37,25.40
2018,07,15,10,38,25.40
2018,07,15,10,39,25.30
2018,07,15,10,40,25.30
2018,07,15,10,41,25.30
2018,07,15,10,42,25.40
2018,07,15,10,43,25.60
2018,07,15,10,44,25.80
2018,07,15,10,45,26.00
2018,07,15,10,46,26.20
2018,07,15,10,47,26.40
2018,07,15,10,48,26.50
2018,07,15,10,49,26.60
2018,07,15,10,50,26.70
2018,07,15,10,51,26.80
2018,07,15,10,52,26.90
2018,07,15,10,53,26.80
2018,07,15,10,54,26.70
2018,07,15,10,55,26.60
2018,07,15,10,56,26.60
2018,07,15,10,57,26.60
2018,07,15,10,58,26.50
2018,07,15,10,59,26.50
2018,07,15,11,00,26.40
2018,07,15,11,01,26.30
2018,07,15,11,02,26.30
2018,07,15,11,03,26.30
2018,07,15,11,04,26.10
2018,07,15,11,05,25.90
2018,07,15,11,06,25.80
2018,07,15,11,07,25.70
2018,07,15,11,08,25.70
2018,07,15,11,09,25.80
2018,07,15,11,10,25.70
2018,07,15,11,11,25.60
2018,07,15,11,12,25.60
2018,07,15,11,13,25.60
2018,07,15,11,14,25.70
2018,07,15,11,15,25.80
2018,07,15,11,16,25.80
2018,07,15,11,17,25.90
2018,07,15,11,18,25.90
2018,07,15,11,19,26.00
2018,07,15,11,20,26.00
2018,07,15,11,21,26.10
2018,07,15,11,22,26.10
2018,07,15,11,23,26.00
2018,07,15,11,24,25.90
2018,07,15,11,25,25.70
2018,07,15,11,26,25.60
2018,07,15,11,27,25.40
2018,07,15,11,28,25.40
2018,07,15,11,29,25.50
2018,07,15,11,30,25.60
2018,07,15,11,31,25.70
2018,07,15,11,32,25.70
2018,07,15,11,33,25.70
2018,07,15,11,34,25.80
2018,07,15,11,35,25.80
2018,07,15,11,36,25.90
2018,07,15,11,37,25.90
2018,07,15,11,38,25.90
2018,07,15,11,39,26.00
2018,07,15,11,40,25.90
2018,07,15,11,41,25.80
2018,07,15,11,42,25.80
2018,07,15,11,43,25.70
2018,07,15,11,44,25.70
2018,07,15,11,45,25.80
2018,07,15,11,46,25.70
2018,07,15,11,47,25.70
2018,07,15,11,48,25.70
2018,07,15,11,49,25.60
2018,07,15,11,50,25.60
2018,07,15,11,51,25.70
2018,07,15,11,52,25.70
2018,07,15,11,53,25.70
2018,07,15,11,54,25.70
2018,07,15,11,55,25.70
2018,07,15,11,56,25.80
2018,07,15,11,57,25.90
2018,07,15,11,58,26.10
2018,07,15,11,59,26.10
2018,07,15,12,00,26.00
2018,07,15,12,01,26.00
2018,07,15,12,02,26.00
2018,07,15,12,03,26.00
2018,07,15,12,04,26.00
2018,07,15,12,05,26.00
2018,07,15,12,06,25.90
2018,07,15,12,07,25.90
2018,07,15,12,08,25.90
2018,07,15,12,09,25.90
2018,07,15,12,10,26.00
2018,07,15,12,11,26.20
2018,07,15,12,12,26.30
2018,07,15,12,13,26.30
2018,07,15,12,14,26.30
2018,07,15,12,15,26.20
2018,07,15,12,16,26.30
2018,07,15,12,17,26.40
2018,07,15,12,18,26.60
2018,07,15,12,19,26.60
2018,07,15,12,20,26.60
2018,07,15,12,21,26.60
2018,07,15,12,22,26.60
2018,07,15,12,23,26.50
2018,07,15,12,24,26.50
2018,07,15,12,25,26.50
2018,07,15,12,26,26.40
2018,07,15,12,27,26.40
2018,07,15,12,28,26.40
2018,07,15,12,29,26.30
2018,07,15,12,30,26.30
2018,07,15,12,31,26.30
2018,07,15,12,32,26.40
2018,07,15,12,33,26.50
2018,07,15,12,34,26.50
2018,07,15,12,35,26.50
2018,07,15,12,36,26.50
2018,07,15,12,37,26.60
2018,07,15,12,38,26.60
2018,07,15,12,39,26.60
2018,07,15,12,40,26.50
2018,07,15,12,41,26.50
2018,07,15,12,42,26.50
2018,07,15,12,43,26.50
2018,07,15,12,44,26.50
2018,07,15,12,45,26.50
2018,07,15,12,46,26.50
2018,07,15,12,47,26.50
2018,07,15,12,48,26.50
2018,07,15,12,49,26.50
2018,07,15,12,50,26.50
2018,07,15,12,51,26.50
2018,07,15,12,52,26.60
2018,07,15,12,53,26.60
2018,07,15,12,54,26.70
2018,07,15,12,55,26.80
2018,07,15,12,56,26.90
2018,07,15,12,57,26.90
2018,07,15,12,58,26.90
2018,07,15,12,59,26.90
2018,07,15,13,00,26.90
2018,07,15,13,01,26.90
2018,07,15,13,02,26.90
2018,07,15,13,03,26.90
2018,07,15,13,04,26.90
2018,07,15,13,05,26.90
2018,07,15,13,06,26.80
2018,07,15,13,07,26.70
2018,07,15,13,08,26.80
2018,07,15,13,09,26.80
2018,07,15,13,10,26.80
2018,07,15,13,11,26.90
2018,07,15,13,12,26.90
2018,07,15,13,13,26.90
2018,07,15,13,14,26.80
2018,07,15,13,15,26.70
2018,07,15,13,16,26.70
2018,07,15,13,17,26.80
2018,07,15,13,18,26.80
2018,07,15,13,19,26.90
2018,07,15,13,20,27.00
2018,07,15,13,21,27.10
2018,07,15,13,22,27.20
2018,07,15,13,23,27.30
2018,07,15,13,24,27.30
2018,07,15,13,25,27.30
2018,07,15,13,26,27.20
2018,07,15,13,27,27.10
2018,07,15,13,28,27.10
2018,07,15,13,29,27.10
2018,07,15,13,30,27.10
2018,07,15,13,31,27.10
2018,07,15,13,32,27.10
2018,07,15,13,33,27.30
2018,07,15,13,34,27.50
2018,07,15,13,35,27.60
2018,07,15,13,36,27.60
2018,07,15,13,37,27.50
2018,07,15,13,38,27.60
2018,07,15,13,39,27.70
2018,07,15,13,40,27.70
2018,07,15,13,41,27.80
2018,07,15,13,42,27.80
2018,07,15,13,43,27.80
2018,07,15,13,44,27.80
2018,07,15,13,45,27.80
2018,07,15,13,46,27.80
2018,07,15,13,47,27.60
2018,07,15,13,48,27.40
2018,07,15,13,49,27.30
2018,07,15,13,50,27.30
2018,07,15,13,51,27.30
2018,07,15,13,52,27.30
2018,07,15,13,53,27.30
2018,07,15,13,54,27.20
2018,07,15,13,55,27.20
2018,07,15,13,56,27.20
2018,07,15,13,57,27.20
2018,07,15,13,58,27.20
2018,07,15,13,59,27.00
2018,07,15,14,00,27.00
2018,07,15,14,01,27.00
2018,07,15,14,02,27.10
2018,07,15,14,03,27.10
2018,07,15,14,04,27.10
2018,07,15,14,05,27.20
2018,07,15,14,06,27.20
2018,07,15,14,07,27.20
2018,07,15,14,08,27.20
2018,07,15,14,09,27.20
2018,07,15,14,10,27.30
2018,07,15,14,11,27.30
2018,07,15,14,12,27.40
2018,07,15,14,13,27.40
2018,07,15,14,14,27.30
2018,07,15,14,15,27.30
2018,07,15,14,16,27.20
2018,07,15,14,17,27.20
2018,07,15,14,18,27.20
2018,07,15,14,19,27.20
2018,07,15,14,20,27.20
2018,07,15,14,21,27.20
2018,07,15,14,22,27.20
2018,07,15,14,23,27.30
2018,07,15,14,24,27.40
2018,07,15,14,25,27.50
2018,07,15,14,26,27.60
2018,07,15,14,27,27.50
2018,07,15,14,28,27.40
2018,07,15,14,29,27.30
2018,07,15,14,30,27.30
2018,07,15,14,31,27.20
2018,07,15,14,32,27.20
2018,07,15,14,33,27.30
2018,07,15,14,34,27.40
2018,07,15,14,35,27.40
2018,07,15,14,36,27.30
2018,07,15,14,37,27.20
2018,07,15,14,38,27.20
2018,07,15,14,39,27.20
2018,07,15,14,40,27.30
2018,07,15,14,41,27.30
2018,07,15,14,42,27.40
2018,07,15,14,43,27.40
2018,07,15,14,44,27.60
2018,07,15,14,45,27.70
2018,07,15,14,46,27.80
2018,07,15,14,47,27.80
2018,07,15,14,48,27.80
2018,07,15,14,49,27.70
2018,07,15,14,50,27.60
2018,07,15,14,51,27.60
2018,07,15,14,52,27.70
2018,07,15,14,53,27.70
2018,07,15,14,54,27.70
2018,07,15,14,55,27.70
2018,07,15,14,56,27.70
2018,07,15,14,57,27.80
2018,07,15,14,58,27.70
2018,07,15,14,59,27.80
2018,07,15,15,00,27.80
2018,07,15,15,01,27.70
2018,07,15,15,02,27.70
2018,07,15,15,03,27.70
2018,07,15,15,04,27.80
2018,07,15,15,05,27.80
2018,07,15,15,06,27.80
2018,07,15,15,07,27.90
2018,07,15,15,08,28.00
2018,07,15,15,09,28.10
2018,07,15,15,10,28.10
2018,07,15,15,11,28.10
2018,07,15,15,12,28.20
2018,07,15,15,13,28.30
2018,07,15,15,14,28.40
2018,07,15,15,15,28.50
2018,07,15,15,16,28.60
2018,07,15,15,17,28.70
2018,07,15,15,18,28.70
2018,07,15,15,19,28.80
2018,07,15,15,20,28.80
2018,07,15,15,21,28.90
2018,07,15,15,22,28.90
2018,07,15,15,23,28.90
2018,07,15,15,24,28.90
2018,07,15,15,25,28.90
2018,07,15,15,26,28.90
2018,07,15,15,27,28.80
2018,07,15,15,28,28.70
2018,07,15,15,29,28.70
2018,07,15,15,30,28.70
2018,07,15,15,31,28.70
2018,07,15,15,32,28.80
2018,07,15,15,33,28.90
2018,07,15,15,34,29.10
2018,07,15,15,35,29.20
2018,07,15,15,36,29.10
2018,07,15,15,37,29.00
2018,07,15,15,38,28.90
2018,07,15,15,39,28.90
2018,07,15,15,40,29.00
2018,07,15,15,41,29.00
2018,07,15,15,42,29.10
2018,07,15,15,43,29.20
2018,07,15,15,44,29.20
2018,07,15,15,45,29.30
2018,07,15,15,46,29.30
2018,07,15,15,47,29.40
2018,07,15,15,48,29.50
2018,07,15,15,49,29.50
2018,07,15,15,50,29.60
2018,07,15,15,51,29.60
2018,07,15,15,52,29.70
2018,07,15,15,53,29.70
2018,07,15,15,54,29.80
2018,07,15,15,55,29.80
2018,07,15,15,56,29.80
2018,07,15,15,57,29.80
2018,07,15,15,58,29.80
2018,07,15,15,59,29.90
2018,07,15,16,00,29.90
2018,07,15,16,01,29.80
2018,07,15,16,02,29.70
2018,07,15,16,03,29.70
2018,07,15,16,04,29.70
2018,07,15,16,05,29.70
2018,07,15,16,06,29.70
2018,07,15,16,07,29.70
2018,07,15,16,08,29.80
2018,07,15,16,09,29.80
2018,07,15,16,10,29.80
2018,07,15,16,11,29.70
2018,07,15,16,12,29.60
2018,07,15,16,13,29.50
2018,07,15,16,14,29.50
2018,07,15,16,15,29.60
2018,07,15,16,16,29.70
2018,07,15,16,17,29.70
2018,07,15,16,18,29.70
2018,07,15,16,19,29.60
2018,07,15,16,20,29.60
2018,07,15,16,21,29.60
2018,07,15,16,22,29.70
2018,07,15,16,23,29.80
2018,07,15,16,24,30.00
2018,07,15,16,25,30.10
2018,07,15,16,26,30.00
2018,07,15,16,27,29.90
2018,07,15,16,28,29.70
2018,07,15,16,29,29.60
2018,07,15,16,30,29.60
2018,07,15,16,31,29.50
2018,07,15,16,32,29.50
2018,07,15,16,33,29.60
2018,07,15,16,34,29.70
2018,07,15,16,35,29.60
2018,07,15,16,36,29.60
2018,07,15,16,37,29.50
2018,07,15,16,38,29.50
2018,07,15,16,39,29.40
2018,07,15,16,40,29.40
2018,07,15,16,41,29.50
2018,07,15,16,42,29.50
2018,07,15,16,43,29.60
2018,07,15,16,44,29.70
2018,07,15,16,45,29.70
2018,07,15,16,46,29.80
2018,07,15,16,47,29.80
2018,07,15,16,48,30.00
2018,07,15,16,49,30.10
2018,07,15,16,50,30.20
2018,07,15,16,51,30.30
2018,07,15,16,52,30.30
2018,07,15,16,53,30.30
2018,07,15,16,54,30.30
2018,07,15,16,55,30.20
2018,07,15,16,56,30.10
2018,07,15,16,57,30.00
2018,07,15,16,58,30.00
2018,07,15,16,59,29.90
2018,07,15,17,00,30.00
2018,07,15,17,01,30.00
2018,07,15,17,02,30.00
2018,07,15,17,03,29.90
2018,07,15,17,04,29.90
2018,07,15,17,05,29.90
2018,07,15,17,06,29.90
2018,07,15,17,07,29.90
2018,07,15,17,08,29.90
2018,07,15,17,09,29.90
2018,07,15,17,10,29.80
2018,07,15,17,11,29.80
2018,07,15,17,12,29.80
2018,07,15,17,13,29.80
2018,07,15,17,14,29.90
2018,07,15,17,15,29.90
2018,07,15,17,16,29.90
2018,07,15,17,17,29.90
2018,07,15,17,18,29.90
2018,07,15,17,19,29.90